This is the latest recevied weather packets stored in our database for station/object N0THY. If no packets are shown the sender has not sent any weather packets the latest 10 day(s).
| Time | Temp. | Humidity | Pressure | Rain* | Wind** | Luminosity | Snow |
|---|---|---|---|---|---|---|---|
| 1777800853 | 3.33° C | 58% | 1019.6 hPa | 0 mm | - | - | - |
| 1777799950 | 3.89° C | 57% | 1019.5 hPa | 0 mm | - | - | - |
| 1777799047 | 3.89° C | 57% | 1019.5 hPa | 0 mm | - | - | - |
| 1777798145 | 3.33° C | 56% | 1019.4 hPa | 0 mm | - | - | - |
| 1777797242 | 3.89° C | 55% | 1019.4 hPa | 0 mm | - | - | - |
| 1777796339 | 4.44° C | 54% | 1019.4 hPa | 0 mm | - | - | - |
| 1777795436 | 4.44° C | 53% | 1019.6 hPa | 0 mm | - | - | - |
| 1777794533 | 4.44° C | 53% | 1019.6 hPa | 0 mm | - | - | - |
| 1777793630 | 4.44° C | 53% | 1019.6 hPa | 0 mm | - | - | - |
| 1777792727 | 5° C | 52% | 1019.6 hPa | 0 mm | - | - | - |
| 1777791824 | 5.56° C | 50% | 1019.5 hPa | 0 mm | - | - | - |
| 1777790921 | 5.56° C | 50% | 1019.5 hPa | 0 mm | - | - | - |
| 1777790018 | 5.56° C | 50% | 1019.4 hPa | 0 mm | - | - | - |
| 1777789115 | 5.56° C | 50% | 1019.2 hPa | 0 mm | - | - | - |
| 1777788212 | 5.56° C | 50% | 1019.2 hPa | 0 mm | - | - | - |
| 1777787309 | 5.56° C | 50% | 1019 hPa | 0 mm | - | - | - |
| 1777786406 | 6.11° C | 50% | 1018.9 hPa | 0 mm | - | - | - |
| 1777785503 | 6.11° C | 50% | 1018.9 hPa | 0 mm | - | - | - |
| 1777784600 | 6.67° C | 48% | 1018.8 hPa | 0 mm | - | - | - |
| 1777783698 | 7.78° C | 44% | 1018.6 hPa | 0 mm | - | - | - |
| 1777782795 | 8.33° C | 42% | 1018.6 hPa | 0 mm | - | - | - |
| 1777781892 | 8.33° C | 41% | 1018.5 hPa | 0 mm | - | - | - |
| 1777780989 | 8.89° C | 40% | 1018.2 hPa | 0 mm | - | - | - |
| 1777780086 | 9.44° C | 37% | 1018.2 hPa | 0 mm | - | - | - |
| 1777779183 | 10.56° C | 36% | 1018 hPa | 0 mm | - | - | - |
* Rain since midnight (hover to see other rain measurements)
** Current wind speed in m/s (hover to see current wind gust speed)